Weather History for Athens, OH

Change the Weather History Date:

Thursday, March 20, 2014

  Actual Average (KPKB) Record (KPKB)
Temperature  
Mean Temperature 43 °F 45 °F  
Max Temperature 50 °F 56 °F 86 °F (1894)
Min Temperature 36 °F 34 °F 11 °F (1965)
Degree Days  
Heating Degree Days 22 20  
Month to date heating degree days 470  
Since 1 July heating degree days 4260  
Moisture  
Dew Point 28 °F    
Average Humidity 56    
Maximum Humidity 72    
Minimum Humidity 36    
Precipitation  
Precipitation 0.00 in 0.12 in 1.17 in (2002)
Month to date precipitation 2.36  
Year to date precipitation 8.01  
Sea Level Pressure  
Sea Level Pressure 30.03 in    
Wind  
Wind Speed 11 mph (West)    
Max Wind Speed 18 mph    
Max Gust Speed 26 mph    
Visibility 10 miles    
Events      
T = Trace of Precipitation, MM = Missing Value Source: NWS Daily Summary

Daily Weather History Graph

Daily Weather History Graph

Search for Another Location

Airport:

Trip Planner

Search our weather history database for the weather conditions in past years. The results will help you decide how hot, cold, wet, or windy it might be!

Date:

Astronomy

Mar. 20, 2014 Rise Set
Actual Time 7:32 AM EDT 7:40 PM EDT
Civil Twilight 7:05 AM EDT 8:07 PM EDT
Nautical Twilight 6:34 AM EDT 8:38 PM EDT
Astronomical Twilight 6:02 AM EDT 9:10 PM EDT
Moon 11:57 PM EDT (3/20) 9:39 AM EDT (3/20)
Length of Visible Light 13h 01m
Length of Day
12h 08m
Waning Gibbous, 84% of the Moon is Illuminated
Mar 20
Waning Gibbous
Mar 23
Last Quarter
Mar 30
New
Apr 7
First Quarter
Apr 15
Full

Hourly Weather History & Observations

Time (EDT) Temp. Windchill Dew Point Humidity Pressure Visibility Wind Dir Wind Speed Gust Speed Precip Events Conditions
12:10 AM 43.9 °F 37.9 °F 34.0 °F 68% 29.96 in 10.0 mi West 11.5 mph - N/A   Overcast
12:30 AM 43.2 °F 35.6 °F 33.3 °F 68% 29.96 in 10.0 mi West 16.1 mph 19.6 mph N/A   Mostly Cloudy
12:50 AM 43.0 °F 36.0 °F 32.9 °F 68% 29.96 in 10.0 mi West 13.8 mph 18.4 mph N/A   Mostly Cloudy
1:10 AM 43.2 °F 36.2 °F 32.5 °F 66% 29.97 in 10.0 mi West 13.8 mph 25.3 mph N/A   Overcast
1:30 AM 43.2 °F 37.4 °F 32.5 °F 66% 29.97 in 10.0 mi West 10.4 mph 17.3 mph N/A   Overcast
1:50 AM 42.8 °F 36.2 °F 33.3 °F 69% 29.97 in 10.0 mi WNW 12.7 mph 19.6 mph N/A   Overcast
2:10 AM 42.4 °F 37.0 °F 33.3 °F 70% 29.97 in 10.0 mi West 9.2 mph 17.3 mph N/A   Overcast
2:30 AM 42.1 °F 35.2 °F 33.1 °F 70% 29.98 in 10.0 mi West 12.7 mph 25.3 mph N/A   Overcast
2:50 AM 41.5 °F 35.9 °F 33.1 °F 72% 29.98 in 10.0 mi West 9.2 mph - N/A   Overcast
3:10 AM 41.0 °F 33.9 °F 32.0 °F 70% 29.98 in 10.0 mi West 12.7 mph 18.4 mph N/A   Overcast
3:30 AM 41.2 °F 34.5 °F 32.0 °F 70% 29.98 in 10.0 mi West 11.5 mph 18.4 mph N/A   Overcast
3:50 AM 40.3 °F 31.6 °F 29.8 °F 66% 29.98 in 10.0 mi West 17.3 mph 24.2 mph N/A   Overcast
4:10 AM 40.1 °F 32.4 °F 28.4 °F 63% 29.98 in 10.0 mi West 13.8 mph 19.6 mph N/A   Overcast
4:30 AM 39.4 °F 31.8 °F 28.6 °F 65% 29.98 in 10.0 mi West 12.7 mph 19.6 mph N/A   Overcast
4:50 AM 38.8 °F 31.6 °F 28.4 °F 66% 29.99 in 10.0 mi West 11.5 mph 20.7 mph N/A   Overcast
5:10 AM 38.3 °F 30.5 °F 28.8 °F 69% 30.01 in 10.0 mi West 12.7 mph 21.9 mph N/A   Overcast
5:30 AM 37.4 °F 28.9 °F 28.0 °F 69% 30.02 in 10.0 mi WNW 13.8 mph 20.7 mph N/A   Overcast
5:50 AM 36.7 °F 27.6 °F 27.3 °F 69% 30.02 in 10.0 mi West 15.0 mph - N/A   Overcast
6:10 AM 36.5 °F 31.0 °F 27.3 °F 69% 30.02 in 10.0 mi West 6.9 mph 20.7 mph N/A   Overcast
6:30 AM 36.5 °F 29.2 °F 27.0 °F 68% 30.03 in 10.0 mi West 10.4 mph 17.3 mph N/A   Overcast
6:50 AM 36.5 °F 28.7 °F 26.4 °F 67% 30.03 in 10.0 mi West 11.5 mph - N/A   Overcast
7:10 AM 36.5 °F 29.7 °F 27.5 °F 70% 30.03 in 10.0 mi WSW 9.2 mph - N/A   Overcast
7:30 AM 36.0 °F 29.0 °F 27.3 °F 71% 30.04 in 10.0 mi WSW 9.2 mph - N/A   Overcast
7:50 AM 36.1 °F 28.2 °F 26.6 °F 68% 30.04 in 10.0 mi West 11.5 mph - N/A   Overcast
8:10 AM 36.5 °F 29.2 °F 25.5 °F 64% 30.06 in 10.0 mi WSW 10.4 mph - N/A   Overcast
8:30 AM 36.5 °F 29.2 °F 25.0 °F 63% 30.06 in 10.0 mi West 10.4 mph - N/A   Overcast
8:50 AM 36.7 °F 28.9 °F 25.9 °F 65% 30.07 in 10.0 mi West 11.5 mph - N/A   Overcast
9:10 AM 37.0 °F 29.3 °F 26.8 °F 66% 30.07 in 10.0 mi WSW 11.5 mph - N/A   Overcast
9:30 AM 37.4 °F 28.9 °F 26.1 °F 64% 30.07 in 10.0 mi West 13.8 mph 17.3 mph N/A   Overcast
9:50 AM 37.6 °F 30.0 °F 25.9 °F 63% 30.08 in 10.0 mi West 11.5 mph - N/A   Overcast
10:10 AM 37.8 °F 29.4 °F 25.3 °F 61% 30.09 in 10.0 mi West 13.8 mph 18.4 mph N/A   Overcast
10:30 AM 38.5 °F 30.3 °F 25.2 °F 59% 30.09 in 10.0 mi WSW 13.8 mph 21.9 mph N/A   Overcast
10:50 AM 38.7 °F 32.4 °F 24.8 °F 58% 30.09 in 10.0 mi West 9.2 mph - N/A   Mostly Cloudy
11:10 AM 39.7 °F 31.5 °F 25.5 °F 57% 30.09 in 10.0 mi West 15.0 mph - N/A   Scattered Clouds
11:30 AM 41.4 °F 34.0 °F 26.8 °F 56% 30.09 in 10.0 mi WSW 13.8 mph 18.4 mph N/A   Scattered Clouds
11:50 AM 41.0 °F 33.1 °F 26.8 °F 57% 30.09 in 10.0 mi West 15.0 mph - N/A   Scattered Clouds
12:10 PM 42.1 °F 34.2 °F 26.4 °F 54% 30.08 in 10.0 mi WSW 16.1 mph - N/A   Scattered Clouds
12:30 PM 44.4 °F 38.2 °F 27.3 °F 51% 30.08 in 10.0 mi WSW 12.7 mph 18.4 mph N/A   Scattered Clouds
12:50 PM 45.3 °F 39.7 °F 27.5 °F 50% 30.07 in 10.0 mi West 11.5 mph 20.7 mph N/A   Scattered Clouds
1:10 PM 46.0 °F 38.8 °F 27.3 °F 48% 30.07 in 10.0 mi West 18.4 mph 23.0 mph N/A   Scattered Clouds
1:30 PM 47.1 °F - 27.0 °F 46% 30.06 in 10.0 mi WSW 15.0 mph 21.9 mph N/A   Scattered Clouds
1:50 PM 47.5 °F - 26.1 °F 43% 30.06 in 10.0 mi West 16.1 mph 19.6 mph N/A   Scattered Clouds
2:10 PM 47.1 °F - 25.9 °F 44% 30.05 in 10.0 mi West 16.1 mph 23.0 mph N/A   Scattered Clouds
2:30 PM 48.4 °F - 25.9 °F 42% 30.04 in 10.0 mi West 13.8 mph 24.2 mph N/A   Scattered Clouds
2:50 PM 49.1 °F - 25.5 °F 40% 30.03 in 10.0 mi West 12.7 mph 23.0 mph N/A   Mostly Cloudy
3:10 PM 48.2 °F - 24.6 °F 40% 30.03 in 10.0 mi WNW 12.7 mph 17.3 mph N/A   Mostly Cloudy
3:30 PM 50.4 °F - 25.7 °F 38% 30.03 in 10.0 mi West 18.4 mph 25.3 mph N/A   Mostly Cloudy
3:50 PM 49.6 °F - 24.1 °F 37% 30.03 in 10.0 mi West 12.7 mph 26.5 mph N/A   Mostly Cloudy
4:10 PM 49.6 °F - 23.9 °F 37% 30.02 in 10.0 mi WNW 11.5 mph 17.3 mph N/A   Scattered Clouds
4:30 PM 50.7 °F - 24.4 °F 36% 30.02 in 10.0 mi West 17.3 mph 21.9 mph N/A   Mostly Cloudy
4:50 PM 49.5 °F - 25.3 °F 39% 30.02 in 10.0 mi WSW 11.5 mph 16.1 mph N/A   Mostly Cloudy
5:10 PM 50.0 °F - 25.0 °F 38% 30.02 in 10.0 mi West 12.7 mph 19.6 mph N/A   Scattered Clouds
5:30 PM 49.5 °F - 24.3 °F 37% 30.02 in 10.0 mi West 13.8 mph 25.3 mph N/A   Mostly Cloudy
5:50 PM 49.3 °F - 24.8 °F 38% 30.02 in 10.0 mi West 10.4 mph 18.4 mph N/A   Overcast
6:10 PM 49.1 °F - 25.3 °F 40% 30.02 in 10.0 mi West 12.7 mph - N/A   Overcast
6:30 PM 49.1 °F - 25.7 °F 40% 30.02 in 10.0 mi West 6.9 mph - N/A   Overcast
6:50 PM 48.9 °F - 26.4 °F 42% 30.02 in 10.0 mi West 5.8 mph - N/A   Overcast
7:10 PM 48.7 °F - 26.2 °F 42% 30.02 in 10.0 mi West 8.1 mph 16.1 mph N/A   Overcast
7:30 PM 48.2 °F - 26.6 °F 43% 30.02 in 10.0 mi West 3.5 mph - N/A   Overcast
7:50 PM 47.5 °F - 26.4 °F 44% 30.02 in 10.0 mi Calm Calm - N/A   Overcast
8:10 PM 47.1 °F - 26.8 °F 45% 30.02 in 10.0 mi Calm Calm - N/A   Overcast
8:30 PM 45.9 °F - 28.9 °F 52% 30.02 in 10.0 mi Calm Calm - N/A   Overcast
8:50 PM 45.1 °F - 28.4 °F 52% 30.02 in 10.0 mi Calm Calm - N/A   Overcast
9:10 PM 44.4 °F - 30.7 °F 59% 30.02 in 10.0 mi Calm Calm - N/A   Overcast
9:30 PM 45.0 °F 42.6 °F 29.8 °F 55% 30.03 in 10.0 mi West 4.6 mph - N/A   Overcast
9:50 PM 45.7 °F - 29.3 °F 53% 30.02 in 10.0 mi Calm Calm - N/A   Overcast
10:10 PM 45.3 °F - 30.2 °F 56% 30.02 in 10.0 mi Calm Calm - N/A   Overcast
10:30 PM 45.1 °F 43.7 °F 30.9 °F 58% 30.02 in 10.0 mi South 3.5 mph - N/A   Overcast
10:50 PM 45.3 °F - 30.4 °F 56% 30.02 in 10.0 mi Calm Calm - N/A   Overcast
11:10 PM 43.7 °F - 32.7 °F 65% 30.03 in 10.0 mi Calm Calm - N/A   Overcast
11:30 PM 44.1 °F - 31.3 °F 61% 30.03 in 10.0 mi Calm Calm - N/A   Overcast
11:50 PM 43.5 °F - 32.2 °F 64% 30.03 in 10.0 mi Calm Calm - N/A   Overcast